Погода в Волочанке

Погода в Волочанке : погода сейчас, прогноз погоды и архив. Всё, что Вы хотите узнать о погоде в Волочанке!

Поиск расширенной информации на нашем сайте:

Другие новости

Новости СМИ2

Главная страница сайта

Новости сайта

02.10.2013

Напоминаем, что на нашем новом сайте вы можете получить высокодетализированные прогнозы погоды по пунктам России, СНГ и мира (включающие важные для авиации метеовеличины, такие как направление и скорость ветра, видимость, явления погоды, количество и форма облачности, нижняя и верхняя граница облачности), а также ознакомиться с разнообразными материалами по авиационной метеорологии и подборкой полезных ссылок на эту тему.

Сайт Метеоцентр.Азия посвящён разработке технологий оптимизации авиаметеорологического обслуживания, включая проектирование и перспективное создание нескольких автоматизированных авиаметеорологических систем:
- система выпуска высокодетальных прогностических карт явлений погоды для нижнего воздушного пространства по России и ближнему зарубежью;
- система верификации прогнозов TAF (выпускаемых синоптиками официальных АМСГ РФ и ближнего зарубежья) и AUTOTAF (выпускаемых сайтом Метеоцентр.Азия) - выявление ошибок, онлайн-сопоставление с фактической погодой METAR, автоматическое внесение коррективов в прогнозы при резком отклонении фактической погоды от прогноза, подсчёт оправдываемости прогнозов по элементам и в целом;
- система обработки, анализа и отображения авиаметеорологической информации для применения провайдерами метеорологической информации.


Погода в Волочанке - сегодня

Время (UTC), дата Ветер
(°,м/с) 
Видим.   Явления Облачность Т
(°С)
Тd
(°С)
f(%) Тe
(°С)
Pmin
(гПа)
dP
(гПа)
Po
(мм)
O2
(г/м3)
Тmin Tmax R s Состояние
почвы
06 24.03.17 120 (ЮВ) 4000 м  слаб. снег  10/10 600 м 
[Sc]
-3 -5 86 -5  1011.1  -2  754  308           
09 24.03.17 130 (ЮВ) 2000 м  снег  10/10 300 м 
[Ns]
-1.7 -3.8 86 -4  1008.5  -2.5  753  306           
12 24.03.17 120 (ЮВ) 4000 м  слаб. снег  10/10 600 м 
[Sc]
-1.6 -2.7 92 -3  1006.8  -1.7  751  305    -1.1     
15 24.03.17 150 (ЮВ) 4000 м  слаб. снег  10/10 600 м 
[Sc]
-2.2 -5.8 76 -3  1006.2  -0.6  751  306           
18 24.03.17 200 (Ю) 10 км  {снег}  8/6 600 м средняя 
[Sc|Ac As]
-3.5 -8.7 67 -3  1004.8  -1.4  750  307           
21 24.03.17 180 (Ю) 10 км    9/5 600 м средняя 
[Sc|Ac As]
-4.9 -9.3 71 -8  1003.4  -1.4  749  308           
00 25.03.17 250 (З) 8-10{10}  10 км  позёмок  8/8 600 м 
[Sc]
-4.1 -9.5 66 -9  1002.3  -1.1  748  307  -5.7    0.0  32  равномерный
сухой снег
100% 
03 25.03.17 230 (ЮЗ) 9-15{16}  2000 м  слаб. снег  10/10 300 м 
[Ns]
-2.9 -4.9 86 -8  1002.8  0.5  748  305           
06 25.03.17 230 (ЮЗ) 8-12{15}  4000 м  слаб. снег  10/5 300 м средняя, верхняя 
[Frnb|As op|Cs]
-2 -6.6 71 -7  1002.8  748  304           
09 25.03.17 210 (ЮЗ) 3{12}  10 км  {снег}  10/8 600 м средняя 
[Sc|As trans]
-1.7 -7 67 -4  1003.3  0.5  749  304           
12 25.03.17 250 (З) 10 км  {снег}  10/10 600 м 
[Sc]
-3.4 -8.1 70 -6  1002.4  -0.9  748  306    -1.5  0.5     
15 25.03.17 120 (ЮВ) 10 км    10/8 600 м средняя 
[Sc|Ac As]
-4.7 -8.7 74 -6  1001.5  -0.9  747  307           
18 25.03.17 130 (ЮВ) 4000 м  слаб. снег  10/10 600 м 
[Sc]
-3.9 -5.1 91 -5  999  -2.5  745  305           
21 25.03.17 110 (В) 10 км  в посл. час снег  10/10 600 м 
[Sc]
-5.7 -6.8 92 -7  996.1  -2.9  743  307           
00 26.03.17 020 (С) 10 км  {снег}  10/10 600 м 
[Sc]
-5.5 -6.9 90 -7  994.2  -1.9  742  306  -6.8    0.2  31  равномерный
сухой снег
100% 
03 26.03.17 200 (Ю) 10 км    10/3 2000 м средняя, верхняя 
[As trans|Cs]
-4.9 -6.6 88 -4  991.8  -2.4  740  304           
06 26.03.17 220 (ЮЗ) 10 км  слаб. снег  10/8 600 м средняя 
[Sc|As op]
-3.8 -6 85 -6  991.3  -0.5  740  303           
09 26.03.17 240 (ЮЗ) 4000 м  слаб. снег  10/10 600 м 
[Sc]
-3.8 -5.6 87 -7  992.1  0.8  740  303           
12 26.03.17 250 (З) 10-13{14}  10 км  метель{снег}  6/4 600 м верхняя 
[Cu hum|Cc]
-5.8 -8.8 79 -12  993.6  1.5  741  306    -3.1  0.5     
15 26.03.17 240 (ЮЗ) 8-11  2000 м  снег  10/10 300 м 
[Ns]
-5.8 -8 84 -11  994.8  1.2  742  306           
18 26.03.17 260 (З) 6-11{16}  10 км  слаб. снег  10/10 600 м 
[Sc]
-9.8 -13.4 75 -15  996.6  1.7  744  312           
21 26.03.17 220 (ЮЗ) 5{11}  10 км  позёмок{снег}  8/8 600 м 
[Sc]
-10.7 -15.1 70 -16  999.1  2.5  745  314           
00 27.03.17 210 (ЮЗ) 10 км  {снег}  10/8 600 м средняя, верхняя 
[Sc|Ac trans|Ci]
-11.1 -14.7 75 -14  1001.4  2.3  747  315  -11.4    0.4  32  равномерный
сухой снег
100% 
03 27.03.17 180 (Ю) 10 км    10/10 600 м 
[Sc]
-9.1 -14.1 67 -12  1002.1  0.7  748  313  -11.5         
06 27.03.17 230 (ЮЗ) 2000 м  снег  10/10 300 м 
[Ns]
-5.4 -6.4 93 -9  1002.5  0.5  748  308           
Время (UTC), дата Ветер
(°,м/с) 
Видим.   Явления Облачность Т
(°С)
Тd
(°С)
f(%) Тe
(°С)
Pmin
(гПа)
dP
(гПа)
Po
(мм)
O2
(г/м3)
Тmin Tmax R s Состояние
почвы

Для получения пояснительной информации подведите курсор к названию столбца.

ПОГОДА в Волочанке - архив

Всё, что Вы хотите узнать о погоде в Волочанке - удобно и подробно!

Выберите нужную дату (начиная с 1 января 2015* года) и нажмите кнопку "Найти".
Будут отображены архивные сводки погоды по пункту Волочанка, начиная с указанной даты.


Отображать данные в формате CSV (для использования в таблицах Excel)


Внимание! Наш архив погоды предназначен исключительно для личного некоммерческого использования в познавательных целях. Если Вам необходимы официальные справки о состоянии погоды (для производственных, юридических, коммерческих и т.п. целей), обращайтесь в органы Росгидромета.

*Примечание: данная дата относится к архиву по метеостанциям СССР (Россия, СНГ, Балтия).
Архив по метеостанциям Зарубежной Европы и Азии (кроме Китая) хранится 10 дней, по другим регионам земного шара (Китай, Африка, Америка, Австралия, Океания) - 1 день.

Волочанка - район местоположения метеостанции


Название, широта, долгота, высота метеостанции:
Волочанка 71°ш. 94.6°д. 37 м над ур. моря [Российская Федерация]

Дополнительная информация

В oтличие oт бoльшинства пoгoдных сайтoв мы публикуем пoдрoбную метеoинфoрмацию в детальнoм прoфессиoнальнoм фoрмате.

Характеристики температуры и влажнoсти вoздуха измеряются на высoте 2 м в тени вдали oт зданий и деревьев.
Скoрoсть ветра измеряется на высoте 10 м (на урoвне рoста челoвека скoрoсть ветра ниже в 1.5-2 раза). Если метеoстанция нахoдится в гoрoде или в лесу, тo скoрoсть ветра занижена на 2-4 м/с пo сравнению с oткрытым местoм. Скoрoсть ветра над акватoриями крупных рек и oзёр, а также на вершинах хoлмoв на 2-5 м/с выше, чем в oбычных услoвиях.
Атмoсфернoе давление в разных тoчках местнoсти мoжет значительнo oтличаться oт давления на метеoстанции, в зависимoсти oт услoвий рельефа (при пoдъёме на 10 м давление пoнижается примернo на 1 мм рт.ст.).